Back to catalog

KUIPER-00116

AliveCommunicationsLEO
NORAD 65153·PAYLOAD·🇺🇸 United States

Launched Aug 11, 2025 from Cape Canaveral Space Force Station

Loading…

Next Passes (next 24 hours)

TLE

FreshSource: CelesTrak SupGP

Epoch: Sep 14, 2026, 19:36 UTC

1 65153C 25171X   26257.81695602  .00006524  00000+0  85423-3 0  2573
2 65153  51.9001  56.8098 0000658 101.6452 103.2412 14.79912182    10

Track KUIPER-00116 in real time with AllMySat

Download on the App Store